www.pogodaiklimat.ru

Погода и климат >> Архив погоды >> Ирак >> Tuz


ПОГОДА в Tuz

  • Прогноз погоды в Tuz
  • Монитор погоды в Tuz
  • Климат города

АРХИВ ПОГОДЫ в Tuz

Время (UTC), дата Ветер
(напр.,м/с)
 
Видим.   Явления Облачность Т
(С)
Тd
(С)
f
(%)
Тe
(С)
Тes
(С)
Комфортность P
(гПа)
Po
(гПа)
Тmin
(С)
Tmax
(С)
R
(мм)
R24
(мм)
S
(см)
12 18.02 ЮВ 4 10 км 10/10 600 м
[Sc]
+13.1 +10.0 81 +11 +11 1007.1 1007.0
15 18.02 ЮВ 5 10 км 10/10 600 м
[Sc]
+12.0 +9.0 82 +10 +10 1007.3 1007.0
18 18.02 В 5 8000 м слабый дождь 10/10 600 м
[Sc]
+12.5 +8.7 78 +10 +10 1008.3 1008.0 +14.5 224
06 19.02 штиль 0 10 км 8/8 600 м
[Sc]
+9.8 +8.1 89 +9 +10 1011.6 1012.0 +9.0 7
09 19.02 В 4 10 км 8/8 600 м
[Sc]
+12.2 +8.8 80 +10 +12 1013.6 1014.0
12 19.02 ЮВ 3 10 км 5/5 600 м
[Cu Sc As op Cs]
+14.0 +7.9 67 +13 +15 1014.3 1014.0
15 19.02 штиль 0 10 км 5/5 750 м
[Cu med, cong]
+13.0 +9.0 77 +13 +13 1015.2 1015.0
06 20.02 штиль 0 10 км ясно +10.5 +8.5 87 +10 +16 1018.7 1019.0 +7.0
09 20.02 Ю 2 10 км 4/1
[Cu hum Ci sp]
+16.0 +8.8 62 +16 +25 1018.1 1018.0
12 20.02 Ю 3 10 км 4/3 750 м
[Cu hum Ac trans]
+17.2 +8.0 55 +17 +20 1015.9 1016.0
15 20.02 Ю 3 10 км 3/1 750 м
[Cu hum Ci sp]
+15.5 +7.5 59 +15 +15 1016.1 1016.0
18 20.02 Ю 2 10 км 8/0
[Ac As]
+12.0 +7.9 76 +11 +11 1017.5 1018.0 +18.0
06 21.02 штиль 0 10 км 9/9 750 м
[Cu Sc]
+13.0 +9.0 77 +13 +13 1015.2 1015.0 +10.2
09 21.02 В 3 10 км 10/10 750 м
[Sc]
+14.5 +10.6 77 +14 +14 1015.2 1015.0
12 21.02 В 2 10 км 10/10 750 м
[Sc]
+16.0 +10.0 68 +16 +16 1014.1 1014.0
15 21.02 штиль 0 10 км 8/8 900 м
[Sc]
+16.2 +8.3 59 +16 +16 1013.1 1013.0
18 21.02 штиль 0 8000 м слабый дождь 10/10 600 м
[Sc]
+15.0 +9.1 68 +15 +15 1013.1 1013.0 +16.8 0.0
06 22.02 СВ 4 10 км 8/0
[As op Ci fib]
+15.2 +8.3 63 +14 +15 1011.1 1011.0 +11.8 3
09 22.02 Ю 3 10 км 6/6 600 м
[Sc diur, vesp Ac cuf]
+19.6 +9.9 53 +21 +25 комфорт 1011.6 1012.0
12 22.02 Ю 3 10 км 8/0 600 м
[As op Ci fib]
+19.7 +13.8 69 +22 +23 комфорт 1009.7 1010.0
18 22.02 Ю 2 10 км 9/9 600 м
[St Ac trans]
+19.9 +8.9 49 +22 +22 комфорт 1010.0 1010.0
06 23.02 Ю 2 8000 м дымка 10/10 600 м
[Sc]
+12.5 +10.5 88 +12 +12 1012.5 1013.0
09 23.02 Ю 2 10 км 9/9
[Cu med, cong]
+16.6 +12.2 75 +17 +18 1012.1 1012.0
12 23.02 Ю 2 10 км 9/4 900 м
[Sc As op]
+17.4 +10.0 62 +18 +19 1011.9 1012.0
15 23.02 Ю 2 10 км 9/0
[As op]
+16.5 +9.6 64 +17 +17 1011.1 1011.0
09 24.02 СЗ 2 10 км 9/8 840 м
[Cu Sc Ac trans Ci sp]
+14.6 +10.8 78 +14 +16 1010.2 1010.0

 

Местоположение метеостанции Tuz (Ирак): широта 34.88 долгота 44.65 высота над уровнем моря 220 м.

В архиве по умолчанию представлена погода в Tuz за последнюю неделю. Архивные данные за месяц целиком и за предыдущие месяцы, начиная с января 2011 года, Вы можете получить, выбрав интересующий диапазон дат из раскрывающегося списка и нажав кнопку "Ввод!".

Внимание! Время в таблицах - всемирное. Для получения местного времени необходимо прибавить поправку, которая в Tuz равна 3 ч.

Смотрите также архив погоды в соседних городах и на ближайших метеорологических станциях:

Погода в Kirkuk (Ирак) (69 км)
Погода в Chamchamal (Ирак) (73 км)
Погода в Tikrit (Ирак) (93 км)
Погода в Khanaqin (Ирак) (96 км)
Погода в Sulaimaniya (Ирак) (104 км)
Погода в Baiji (Ирак) (107 км)
Погода в Al-Khalis (Ирак) (117 км)
Погода в Halabcha (Ирак) (124 км)
Погода в Makhmoor (Ирак) (136 км)
Погода в Ayn Al-Tamar (Ирак) (148 км)

Пояснения к столбцам:

Ветер - указаны скорость ветра в м/с - средняя за 10 мин, порывы в срок и между сроками (в фигурных скобках) и направление, откуда дует ветер: С - северный, СВ - северо-восточный, В - восточный, ЮВ - юго-восточный, Ю - южный, ЮЗ - юго-западный, З - западный, СЗ - северо-западный.
Видимость - горизонтальная дальность видимости в метрах или километрах. При видимости от 1 до 10 км при отсутствии осадков обычно наблюдается дымка, при ухудшении видимости до 1 км и менее - туман. В сухую погоду видимость может ухудшаться дымом, пылью или мглою.
Явления - указаны атмосферные явления, наблюдавшиеся в срок или в последний час перед сроком; фигурными скобками обозначены явления, наблюдавшиеся между сроками (за 1-3 часа до срока); квадратными скобками обозначены град или гололедные отложения с указанием их диаметра в мм.
Облачность - указаны через наклонную черту общая и нижняя облачность в баллах и высота нижней границы облаков в метрах; квадратными скобками обозначены формы облаков: Ci - перистые, Cs - перисто-слоистые, Cc - перисто-кучевые, Ac - высококучевые, As - высокослоистые, Sc - слоисто-кучевые, Ns - слоисто-дождевые, Cu - кучевые, Cb - кучево-дождевые. Подробнее классификацию облаков см. в Атласе облаков (PDF).
T - Температура воздуха - температура, измеренная на высоте 2 м над землей.
Td - Температура точки росы - температура, при понижении до которой содержащийся в воздухе водяной пар достигнет насыщения.
f - Относительная влажность воздуха - влажноcть воздуха, измеренная на высоте 2 м над землей.
Te - Эффективная температура - температура, которую ощущает одетый по сезону человек в тени. Характеристика душности погоды. При расчете учитывается влияние влажности воздуха и скорости ветра на теплоощущения человека.
Tes - Эффективная температура на солнце - температура, которую ощущает человек, с поправкой на солнечный нагрев. Характеристика знойности погоды. Зависит от высоты солнца над горизонтом, облачности и скорости ветра. Ночью, в пасмурную погоду, а также при ветре 12 м/с и более поправка равна нулю.
P - Атмосферное давление - приведенное к уровню моря атмосферное давление.
Po - Атмосферное давление - измеренное на уровне метеостанции атмосферное давление.
Tmin - Минимальная температура - минимум температуры воздуха на высоте 2 м над землей.
Tmax - Максимальная температура - максимум температуры воздуха на высоте 2 м над землей.
R - Количество осадков - Количество выпавших осадков за период времени, мм. При наведении курсора мыши на число - период времени, за который выпало указанное количество осадков.
R24 - Количество осадков - Количество выпавших осадков за 24 часа, мм.
S - Снежный покров - Высота снежного покрова, см. При наведении курсора мыши на число - состояние снежного покрова и степень покрытия местности в баллах.